Regional Weather Roundup
Issued by NWS

Home | Current Version | Previous Version | Text Only | Print | Product List | Glossary On
Versions: 1 2 3 4 5 6 7 8 9 10 11 12 13 14 15 16 17 18 19 20 21 22 23 24 25 26 27 28 29 30 31 32 33 34 35 36 37 38 39 40 41 42 43 44 45 46 47 48 49 50
000
ASUS43 KLSX 271757
RWRMO

WEATHER SUMMARY FOR MISSOURI
NATIONAL WEATHER SERVICE SPRINGFIELD MO
100 PM CDT SUN MAY 27 2018

NOTE: "FAIR" INDICATES FEW OR NO CLOUDS BELOW 12,000 FEET WITH NO
       SIGNIFICANT WEATHER AND/OR OBSTRUCTIONS TO VISIBILITY.
       CURRENT SKY AND/OR WEATHER CONDITIONS ARE NOT AVAILABLE FOR
       CHILLICOTHE AND FARMINGTON.

MOZ001>031-035>038-043-044-053-054-271900-
...NORTHERN AND WESTERN MISSOURI...

CITY           SKY/WX    TMP DP  RH WIND       PRES   REMARKS
KANSAS CTY INT MOSUNNY   90  66  45 SW7       29.91S HX  92
6HR MIN TEMP:  72; 6HR MAX TEMP:  91;

LEE`S SUMMIT   SUNNY     89  68  49 CALM      29.92S HX  93
6HR MIN TEMP:  73; 6HR MAX TEMP:  90;

ST JOSEPH      SUNNY     96  63  33 VRB6      29.88F HX  97
6HR MIN TEMP:  73; 6HR MAX TEMP:  97;

CHILLICOTHE      N/A     94  67  41 VRB5      29.89S HX  97
6HR MIN TEMP:  76; 6HR MAX TEMP:  94;


$$
MOZ066>068-077>081-088>096-101>105-271900-
...SOUTHWEST MISSOURI...

CITY           SKY/WX    TMP DP  RH WIND       PRES   REMARKS
SPRINGFIELD    SUNNY     88  67  49 S6        29.93F HX  91
6HR MIN TEMP:  71; 6HR MAX TEMP:  89;

JOPLIN         SUNNY     89  71  55 VRB3      29.92F HX  95
6HR MIN TEMP:  71; 6HR MAX TEMP:  89;

BRANSON        MOSUNNY   86  68  54 SE6       29.96F

$$
MOZ032>034-039>042-045>050-055>058-069>072-271900-
...CENTRAL MISSOURI...

CITY           SKY/WX    TMP DP  RH WIND       PRES   REMARKS
COLUMBIA       NOT AVBL
JEFFERSON CITY MOSUNNY   92  69  47 VRB5      29.89F HX  97
6HR MIN TEMP:  71; 6HR MAX TEMP:  92;

ROLLA          SUNNY     87  68  52 CALM      29.94F HX  90
6HR MIN TEMP:  71; 6HR MAX TEMP:  87;

SEDALIA        SUNNY     89  72  56 W7        29.93F HX  96
6HR MIN TEMP:  74; 6HR MAX TEMP:  89;

WARRENSBURG    SUNNY     88  68  51 SW6       29.91F HX  91

$$
MOZ051-052-059>065-271900-
...EAST CENTRAL MISSOURI...

CITY           SKY/WX    TMP DP  RH WIND       PRES   REMARKS
ST LOUIS INTL  MOSUNNY   93  73  52 W3        29.89F HX 102
6HR MIN TEMP:  74; 6HR MAX TEMP:  93;


$$
MOZ072>076-082>087-097>100-106>115-271900-
...SOUTH CENTRAL AND SOUTHEAST MISSOURI...

CITY           SKY/WX    TMP DP  RH WIND       PRES   REMARKS
CAPE GIRARDEAU FAIR      88  68  51 CALM      29.90F HX  91
6HR MIN TEMP:  72; 6HR MAX TEMP:  88;

POPLAR BLUFF   FAIR      87  70  56 VRB6      29.91S HX  92
6HR MIN TEMP:  72; 6HR MAX TEMP:  88;

WEST PLAINS    MOSUNNY   86  67  52 VRB6      29.96F
6HR MIN TEMP:  68; 6HR MAX TEMP:  86;


$$




USA.gov is the U.S. government's official web portal to all federal, state and local government web resources and services.